Date String (YYYY-MM-DD hh:mm:ss) UTC,Instrument flags,Ambient pressure (hPa),Sample flow (lpm),Bypass flow (lpm),Sample temperature (°C),Ambient temperature (°C),ASC tube jacket temperature (°C),LED temperature (°C),Box temperature (°C),Sample RH (%),Span deviation,Mass concentration (μg/m³),Mass concentration (μg/m³),Mass concentration (μg/m³)
DateTimeUTC,F1_M11,P_M11,Q1_M11,Q2_M11,T1_M11,T2_M11,T3_M11,T4_M11,T5_M11,U1_M11,ZSPAN_M11,X2_M11,X0_M11,X1_M11
2022-12-17 18:00:00,,0823.7,4.99,0.00,23.1,21.7,00.0,31.9,24.9,03.8,0000.0,0003.12,0007.74,0002.42
2022-12-17 18:01:00,,0823.6,5.01,0.00,23.1,21.6,00.0,31.9,24.9,03.8,0000.0,0003.16,0007.77,0002.44
2022-12-17 18:02:00,,0823.6,4.98,0.00,23.1,21.6,00.0,31.9,24.9,04.0,0000.0,0003.18,0007.49,0002.45
2022-12-17 18:03:00,,0823.6,5.02,0.00,23.1,21.6,00.0,31.9,24.8,04.0,0000.0,0003.21,0007.53,0002.52
2022-12-17 18:04:00,,0823.5,4.97,0.00,23.1,21.6,00.0,31.9,24.8,04.0,0000.0,0003.25,0008.10,0002.59
2022-12-17 18:05:00,,0823.5,5.03,0.00,23.1,21.6,00.0,31.9,24.8,04.0,0000.0,0003.28,0008.10,0002.65
2022-12-17 18:06:00,,0823.5,4.97,0.00,23.1,21.6,00.0,31.9,24.9,04.1,0000.0,0003.35,0008.13,0002.74
2022-12-17 18:07:00,,0823.5,5.04,0.00,23.0,21.6,00.0,31.9,24.9,04.0,0000.0,0003.41,0008.21,0002.83
2022-12-17 18:08:00,,0823.5,4.97,0.00,23.0,21.5,00.0,31.9,24.9,04.1,0000.0,0003.44,0007.64,0002.91
2022-12-17 18:09:00,,0823.5,5.04,0.00,23.0,21.5,00.0,31.9,24.9,04.2,0000.0,0003.50,0007.61,0003.00
2022-12-17 18:10:00,,0823.4,4.96,0.00,23.0,21.4,00.0,31.9,24.8,04.1,0000.0,0003.54,0007.76,0003.09
2022-12-17 18:11:00,,0823.4,5.02,0.00,22.9,21.3,00.0,31.9,24.8,04.1,0000.0,0003.57,0007.73,0003.14
2022-12-17 18:12:00,,0823.4,4.96,0.00,22.9,21.4,00.0,31.9,24.8,04.1,0000.0,0003.58,0007.63,0003.18
2022-12-17 18:13:00,,0823.3,5.04,0.00,22.9,21.4,00.0,31.8,24.8,04.2,0000.0,0003.60,0007.62,0003.21
2022-12-17 18:14:00,,0823.4,4.96,0.00,22.9,21.4,00.0,31.8,24.8,04.2,0000.0,0003.66,0007.96,0003.23
2022-12-17 18:15:00,,0823.4,5.04,0.00,22.9,21.5,00.0,31.8,24.8,04.3,0000.0,0003.68,0007.10,0003.25
2022-12-17 18:16:00,,0823.3,4.96,0.00,22.9,21.5,00.0,31.8,24.8,04.2,0000.0,0003.72,0007.31,0003.27
2022-12-17 18:17:00,,0823.4,5.02,0.00,22.9,21.5,00.0,31.8,24.7,04.2,0000.0,0003.79,0007.62,0003.29
2022-12-17 18:18:00,,0823.3,4.97,0.00,22.9,21.5,00.0,31.8,24.7,04.2,0000.0,0003.82,0007.77,0003.31
2022-12-17 18:19:00,,0823.4,5.04,0.00,22.9,21.5,00.0,31.8,24.7,04.3,0000.0,0003.89,0007.95,0003.35
2022-12-17 18:20:00,,0823.3,4.98,0.00,22.9,21.5,00.0,31.8,24.7,04.3,0000.0,0003.94,0008.48,0003.38
2022-12-17 18:21:00,,0823.3,5.00,0.00,22.9,21.5,00.0,31.8,24.8,04.3,0000.0,0003.97,0009.10,0003.40
2022-12-17 18:22:00,,0823.3,5.00,0.00,22.9,21.6,00.0,31.8,24.7,04.4,0000.0,0003.99,0009.71,0003.42
2022-12-17 18:23:00,,0823.3,5.00,0.00,22.9,21.6,00.0,31.8,24.8,04.4,0000.0,0004.04,0010.30,0003.44
2022-12-17 18:24:00,,0823.3,5.01,0.00,22.9,21.6,00.0,31.8,24.8,04.4,0000.0,0004.10,0010.44,0003.46
2022-12-17 18:25:00,,0823.2,4.99,0.00,22.9,21.5,00.0,31.8,24.8,04.4,0000.0,0004.14,0010.33,0003.49
2022-12-17 18:26:00,,0823.2,5.01,0.00,22.9,21.5,00.0,31.8,24.7,04.3,0000.0,0004.15,0010.30,0003.52
2022-12-17 18:27:00,,0823.3,4.97,0.00,22.9,21.5,00.0,31.8,24.6,04.2,0000.0,0004.12,0010.25,0003.52
2022-12-17 18:28:00,,0823.2,5.03,0.00,22.9,21.5,00.0,31.8,24.7,04.2,0000.0,0004.06,0010.07,0003.50
2022-12-17 18:29:00,,0823.3,4.97,0.00,22.9,21.5,00.0,31.7,24.7,04.1,0000.0,0004.03,0009.89,0003.47
2022-12-17 18:30:00,,0823.2,5.05,0.00,22.9,21.5,00.0,31.8,24.7,04.2,0000.0,0003.98,0009.79,0003.45
2022-12-17 18:31:00,,0823.3,4.97,0.00,22.9,21.3,00.0,31.7,24.7,04.2,0000.0,0003.95,0009.58,0003.43
2022-12-17 18:32:00,,0823.3,5.03,0.00,22.8,21.2,00.0,31.7,24.7,04.3,0000.0,0003.96,0009.25,0003.43
2022-12-17 18:33:00,,0823.2,4.96,0.00,22.8,21.2,00.0,31.7,24.6,04.3,0000.0,0003.99,0008.94,0003.42
2022-12-17 18:34:00,,0823.1,5.04,0.00,22.8,21.1,00.0,31.7,24.6,04.3,0000.0,0003.98,0008.05,0003.43
2022-12-17 18:35:00,,0823.2,4.96,0.00,22.8,21.1,00.0,31.7,24.6,04.3,0000.0,0003.98,0008.02,0003.42
2022-12-17 18:36:00,,0823.1,5.03,0.00,22.8,21.1,00.0,31.7,24.6,04.3,0000.0,0003.96,0007.91,0003.41
2022-12-17 18:37:00,,0823.1,4.98,0.00,22.8,21.2,00.0,31.7,24.6,04.4,0000.0,0003.96,0007.96,0003.39
2022-12-17 18:38:00,,0823.1,5.02,0.00,22.7,21.2,00.0,31.7,24.6,04.4,0000.0,0004.00,0008.44,0003.41
2022-12-17 18:39:00,,0823.1,4.97,0.00,22.8,21.3,00.0,31.7,24.6,04.4,0000.0,0004.03,0008.54,0003.44
2022-12-17 18:40:00,,0823.1,5.04,0.00,22.7,21.3,00.0,31.6,24.5,04.5,0000.0,0004.09,0008.95,0003.48
2022-12-17 18:41:00,,0823.0,4.96,0.00,22.8,21.3,00.0,31.6,24.5,04.6,0000.0,0004.13,0009.23,0003.51
2022-12-17 18:42:00,,0822.9,5.05,0.00,22.8,21.4,00.0,31.6,24.6,04.5,0000.0,0004.16,0009.26,0003.54
2022-12-17 18:43:00,,0823.0,4.96,0.00,22.7,21.4,00.0,31.6,24.6,04.5,0000.0,0004.18,0008.91,0003.55
2022-12-17 18:44:00,,0823.0,5.03,0.00,22.7,21.3,00.0,31.6,24.6,04.4,0000.0,0004.17,0008.80,0003.54
2022-12-17 18:45:00,,0822.9,4.96,0.00,22.7,21.3,00.0,31.6,24.6,04.4,0000.0,0004.19,0009.01,0003.54
2022-12-17 18:46:00,,0822.9,5.04,0.00,22.7,21.3,00.0,31.6,24.6,04.5,0000.0,0004.19,0009.09,0003.53
2022-12-17 18:47:00,,0822.9,4.97,0.00,22.7,21.3,00.0,31.6,24.6,04.5,0000.0,0004.17,0009.03,0003.53
2022-12-17 18:48:00,,0822.9,5.04,0.00,22.7,21.3,00.0,31.6,24.6,04.4,0000.0,0004.18,0009.08,0003.53
2022-12-17 18:49:00,,0822.9,4.96,0.00,22.7,21.3,00.0,31.6,24.6,04.4,0000.0,0004.15,0008.88,0003.52
2022-12-17 18:50:00,,0822.9,5.03,0.00,22.7,21.3,00.0,31.6,24.6,04.5,0000.0,0004.13,0008.62,0003.51
2022-12-17 18:51:00,,0823.0,4.96,0.00,22.7,21.3,00.0,31.6,24.6,04.5,0000.0,0004.06,0008.21,0003.48
2022-12-17 18:52:00,,0822.9,5.04,0.00,22.7,21.4,00.0,31.6,24.6,04.5,0000.0,0004.06,0007.77,0003.47
2022-12-17 18:53:00,,0822.9,4.97,0.00,22.7,21.4,00.0,31.6,24.6,04.5,0000.0,0004.04,0007.79,0003.45
2022-12-17 18:54:00,,0822.8,5.02,0.00,22.7,21.4,00.0,31.6,24.5,04.6,0000.0,0004.03,0007.80,0003.44
2022-12-17 18:55:00,,0822.8,4.98,0.00,22.8,21.5,00.0,31.6,24.6,04.7,0000.0,0004.06,0007.92,0003.44
2022-12-17 18:56:00,,0822.8,4.98,0.00,22.8,21.4,00.0,31.6,24.6,04.6,0000.0,0004.05,0008.10,0003.45
2022-12-17 18:57:00,,0822.8,5.04,0.00,22.7,21.4,00.0,31.6,24.6,04.5,0000.0,0004.03,0008.10,0003.45
2022-12-17 18:58:00,,0822.8,4.97,0.00,22.8,21.4,00.0,31.6,24.6,04.5,0000.0,0004.04,0008.16,0003.46
2022-12-17 18:59:00,,0822.8,5.04,0.00,22.8,21.4,00.0,31.6,24.6,04.5,0000.0,0004.02,0008.10,0003.46
